Time,TemperatureF,DewpointF,PressureIn,WindDirection,WindDirectionDegrees,WindSpeedMPH,WindSpeedGustMPH,Humidity,HourlyPrecipIn,Conditions,Clouds,dailyrainin,SoftwareType,DateUTC
2013-05-02 00:02:00,34.0,29.0,-100.00,ESE,105,2.0,3.0,82,-99.99,,,-99.99,,2013-05-02 08:02:00,
2013-05-02 00:11:00,34.0,29.0,-100.00,ESE,105,2.0,3.0,82,-99.99,,,-99.99,,2013-05-02 08:11:00,
2013-05-02 00:21:00,33.0,29.0,-100.00,ESE,105,2.0,2.0,85,-99.99,,,-99.99,,2013-05-02 08:21:00,
2013-05-02 00:32:00,33.0,29.0,-100.00,ESE,105,2.0,2.0,85,-99.99,,,-99.99,,2013-05-02 08:32:00,
2013-05-02 00:42:00,33.0,29.0,-100.00,ESE,105,2.0,2.0,85,-99.99,,,-99.99,,2013-05-02 08:42:00,
2013-05-02 00:52:00,32.0,29.0,-100.00,East,100,2.0,2.0,87,-99.99,,,-99.99,,2013-05-02 08:52:00,
2013-05-02 01:01:00,32.0,29.0,-100.00,East,100,2.0,2.0,87,-99.99,,,-99.99,,2013-05-02 09:01:00,
2013-05-02 01:11:00,32.0,29.0,-100.00,East,100,2.0,2.0,87,-99.99,,,-99.99,,2013-05-02 09:11:00,
2013-05-02 01:21:00,32.0,29.0,-100.00,East,95,3.0,4.0,89,-99.99,,,-99.99,,2013-05-02 09:21:00,
2013-05-02 01:32:00,32.0,29.0,-100.00,East,95,3.0,4.0,89,-99.99,,,-99.99,,2013-05-02 09:32:00,
2013-05-02 01:42:00,32.0,29.0,-100.00,East,95,3.0,4.0,89,-99.99,,,-99.99,,2013-05-02 09:42:00,
2013-05-02 01:52:00,32.0,30.0,-100.00,East,95,3.0,4.0,90,-99.99,,,-99.99,,2013-05-02 09:52:00,
2013-05-02 02:02:00,32.0,30.0,-100.00,East,95,3.0,4.0,90,-99.99,,,-99.99,,2013-05-02 10:02:00,
2013-05-02 02:12:00,32.0,30.0,-100.00,East,95,3.0,4.0,90,-99.99,,,-99.99,,2013-05-02 10:12:00,
2013-05-02 02:22:00,32.0,30.0,-100.00,East,100,2.0,4.0,90,-99.99,,,-99.99,,2013-05-02 10:22:00,
2013-05-02 02:32:00,32.0,30.0,-100.00,East,100,2.0,4.0,90,-99.99,,,-99.99,,2013-05-02 10:32:00,
2013-05-02 02:42:00,32.0,30.0,-100.00,East,100,2.0,4.0,90,-99.99,,,-99.99,,2013-05-02 10:42:00,
2013-05-02 02:52:00,32.0,30.0,-100.00,East,95,2.0,4.0,90,-99.99,,,-99.99,,2013-05-02 10:52:00,
2013-05-02 03:02:00,32.0,30.0,-100.00,East,95,2.0,4.0,90,-99.99,,,-99.99,,2013-05-02 11:02:00,
2013-05-02 03:11:00,32.0,30.0,-100.00,East,95,2.0,4.0,90,-99.99,,,-99.99,,2013-05-02 11:11:00,
2013-05-02 03:21:00,33.0,30.0,-100.00,East,90,4.0,5.0,90,-99.99,,,-99.99,,2013-05-02 11:21:00,
2013-05-02 03:31:00,33.0,30.0,-100.00,East,90,4.0,5.0,90,-99.99,,,-99.99,,2013-05-02 11:31:00,
2013-05-02 03:42:00,33.0,30.0,-100.00,East,90,4.0,5.0,90,-99.99,,,-99.99,,2013-05-02 11:42:00,
2013-05-02 03:52:00,33.0,30.0,-100.00,East,90,2.0,4.0,90,-99.99,,,-99.99,,2013-05-02 11:52:00,
2013-05-02 04:01:00,33.0,30.0,-100.00,East,90,2.0,4.0,90,-99.99,,,-99.99,,2013-05-02 12:01:00,
2013-05-02 04:11:00,33.0,30.0,-100.00,East,90,2.0,4.0,90,-99.99,,,-99.99,,2013-05-02 12:11:00,
2013-05-02 04:21:00,33.0,31.0,-100.00,East,100,1.0,2.0,91,-99.99,,,-99.99,,2013-05-02 12:21:00,
2013-05-02 04:32:00,33.0,31.0,-100.00,East,100,1.0,2.0,91,-99.99,,,-99.99,,2013-05-02 12:32:00,
2013-05-02 04:42:00,33.0,31.0,-100.00,East,100,1.0,2.0,91,-99.99,,,-99.99,,2013-05-02 12:42:00,
2013-05-02 04:52:00,33.0,31.0,-100.00,East,90,1.0,2.0,92,-99.99,,,-99.99,,2013-05-02 12:52:00,
2013-05-02 05:01:00,33.0,31.0,-100.00,East,90,1.0,2.0,92,-99.99,,,-99.99,,2013-05-02 13:01:00,
2013-05-02 05:11:00,33.0,31.0,-100.00,East,90,1.0,2.0,92,-99.99,,,-99.99,,2013-05-02 13:11:00,
2013-05-02 05:21:00,33.0,32.0,-100.00,ESE,110,1.0,2.0,94,-99.99,,,-99.99,,2013-05-02 13:21:00,
2013-05-02 05:31:00,33.0,32.0,-100.00,ESE,110,1.0,2.0,94,-99.99,,,-99.99,,2013-05-02 13:31:00,
2013-05-02 05:42:00,33.0,32.0,-100.00,ESE,110,1.0,2.0,94,-99.99,,,-99.99,,2013-05-02 13:42:00,
2013-05-02 05:52:00,33.0,32.0,-100.00,East,90,1.0,2.0,95,-99.99,,,-99.99,,2013-05-02 13:52:00,
2013-05-02 06:02:00,33.0,32.0,-100.00,East,90,1.0,2.0,95,-99.99,,,-99.99,,2013-05-02 14:02:00,
2013-05-02 06:11:00,33.0,32.0,-100.00,East,90,1.0,2.0,95,-99.99,,,-99.99,,2013-05-02 14:11:00,
2013-05-02 06:21:00,33.0,32.0,-100.00,East,95,1.0,2.0,96,-99.99,,,-99.99,,2013-05-02 14:21:00,
2013-05-02 06:31:00,33.0,32.0,-100.00,East,95,1.0,2.0,96,-99.99,,,-99.99,,2013-05-02 14:31:00,
2013-05-02 06:43:00,33.0,32.0,-100.00,East,95,1.0,2.0,96,-99.99,,,-99.99,,2013-05-02 14:43:00,
2013-05-02 06:52:00,33.0,32.0,-100.00,East,90,1.0,1.0,97,-99.99,,,-99.99,,2013-05-02 14:52:00,
2013-05-02 07:02:00,33.0,32.0,-100.00,East,90,1.0,1.0,97,-99.99,,,-99.99,,2013-05-02 15:02:00,
2013-05-02 07:12:00,33.0,32.0,-100.00,East,90,1.0,1.0,97,-99.99,,,-99.99,,2013-05-02 15:12:00,
2013-05-02 07:21:00,33.0,33.0,-100.00,East,95,1.0,2.0,98,-99.99,,,-99.99,,2013-05-02 15:21:00,
2013-05-02 07:32:00,33.0,33.0,-100.00,East,95,1.0,2.0,98,-99.99,,,-99.99,,2013-05-02 15:32:00,
2013-05-02 07:43:00,33.0,33.0,-100.00,East,95,1.0,2.0,98,-99.99,,,-99.99,,2013-05-02 15:43:00,
2013-05-02 08:02:00,34.0,33.0,-100.00,East,85,0.0,1.0,98,-99.99,,,-99.99,,2013-05-02 16:02:00,
2013-05-02 08:13:00,34.0,33.0,-100.00,East,85,0.0,1.0,98,-99.99,,,-99.99,,2013-05-02 16:13:00,
2013-05-02 08:22:00,35.0,34.0,-100.00,NE,50,1.0,2.0,98,-99.99,,,-99.99,,2013-05-02 16:22:00,
2013-05-02 08:32:00,35.0,34.0,-100.00,NE,50,1.0,2.0,98,-99.99,,,-99.99,,2013-05-02 16:32:00,
2013-05-02 08:43:00,35.0,34.0,-100.00,NE,50,1.0,2.0,98,-99.99,,,-99.99,,2013-05-02 16:43:00,
2013-05-02 08:52:00,35.0,35.0,-100.00,SE,135,0.0,3.0,98,-99.99,,,-99.99,,2013-05-02 16:52:00,
2013-05-02 09:02:00,35.0,35.0,-100.00,SE,135,0.0,3.0,98,-99.99,,,-99.99,,2013-05-02 17:02:00,
2013-05-02 09:12:00,35.0,35.0,-100.00,SE,135,0.0,3.0,98,-99.99,,,-99.99,,2013-05-02 17:12:00,
2013-05-02 09:22:00,35.0,35.0,-100.00,NW,310,0.0,3.0,98,-99.99,,,-99.99,,2013-05-02 17:22:00,
2013-05-02 09:31:00,35.0,35.0,-100.00,NW,310,0.0,3.0,98,-99.99,,,-99.99,,2013-05-02 17:31:00,
2013-05-02 09:42:00,35.0,35.0,-100.00,NW,310,0.0,3.0,98,-99.99,,,-99.99,,2013-05-02 17:42:00,
2013-05-02 09:52:00,36.0,35.0,-100.00,North,0,1.0,4.0,98,-99.99,,,-99.99,,2013-05-02 17:52:00,
2013-05-02 10:01:00,36.0,35.0,-100.00,North,0,1.0,4.0,98,-99.99,,,-99.99,,2013-05-02 18:01:00,
2013-05-02 10:11:00,36.0,35.0,-100.00,North,0,1.0,4.0,98,-99.99,,,-99.99,,2013-05-02 18:11:00,
2013-05-02 10:21:00,36.0,35.0,-100.00,NW,325,4.0,7.0,98,-99.99,,,-99.99,,2013-05-02 18:21:00,
2013-05-02 10:31:00,36.0,35.0,-100.00,NW,325,4.0,7.0,98,-99.99,,,-99.99,,2013-05-02 18:31:00,
2013-05-02 10:42:00,36.0,35.0,-100.00,NW,325,4.0,7.0,98,-99.99,,,-99.99,,2013-05-02 18:42:00,
2013-05-02 10:52:00,35.0,35.0,-100.00,NW,320,2.0,6.0,98,-99.99,,,-99.99,,2013-05-02 18:52:00,
2013-05-02 11:01:00,35.0,35.0,-100.00,NW,320,2.0,6.0,98,-99.99,,,-99.99,,2013-05-02 19:01:00,
2013-05-02 11:11:00,35.0,35.0,-100.00,NW,320,2.0,6.0,98,-99.99,,,-99.99,,2013-05-02 19:11:00,
2013-05-02 11:21:00,36.0,35.0,-100.00,NW,310,4.0,6.0,98,-99.99,,,-99.99,,2013-05-02 19:21:00,
2013-05-02 11:32:00,36.0,35.0,-100.00,NW,310,4.0,6.0,98,-99.99,,,-99.99,,2013-05-02 19:32:00,
2013-05-02 11:42:00,36.0,35.0,-100.00,NW,310,4.0,6.0,98,-99.99,,,-99.99,,2013-05-02 19:42:00,
2013-05-02 11:52:00,36.0,35.0,-100.00,NW,320,3.0,6.0,98,-99.99,,,-99.99,,2013-05-02 19:52:00,
2013-05-02 12:01:00,36.0,35.0,-100.00,NW,320,3.0,6.0,98,-99.99,,,-99.99,,2013-05-02 20:01:00,
2013-05-02 12:11:00,36.0,35.0,-100.00,NW,320,3.0,6.0,98,-99.99,,,-99.99,,2013-05-02 20:11:00,
2013-05-02 12:21:00,36.0,36.0,-100.00,NW,305,2.0,4.0,98,-99.99,,,-99.99,,2013-05-02 20:21:00,
2013-05-02 12:32:00,36.0,36.0,-100.00,NW,305,2.0,4.0,98,-99.99,,,-99.99,,2013-05-02 20:32:00,
2013-05-02 12:41:00,36.0,36.0,-100.00,NW,305,2.0,4.0,98,-99.99,,,-99.99,,2013-05-02 20:41:00,
2013-05-02 12:52:00,37.0,36.0,-100.00,NNW,335,2.0,5.0,97,-99.99,,,-99.99,,2013-05-02 20:52:00,
2013-05-02 13:01:00,37.0,36.0,-100.00,NNW,335,2.0,5.0,97,-99.99,,,-99.99,,2013-05-02 21:01:00,
2013-05-02 13:11:00,37.0,36.0,-100.00,NNW,335,2.0,5.0,97,-99.99,,,-99.99,,2013-05-02 21:11:00,
2013-05-02 13:21:00,38.0,37.0,-100.00,West,275,1.0,3.0,96,-99.99,,,-99.99,,2013-05-02 21:21:00,
2013-05-02 13:33:00,38.0,37.0,-100.00,West,275,1.0,3.0,96,-99.99,,,-99.99,,2013-05-02 21:33:00,
2013-05-02 13:42:00,38.0,37.0,-100.00,West,275,1.0,3.0,96,-99.99,,,-99.99,,2013-05-02 21:42:00,
2013-05-02 13:53:00,38.0,36.0,-100.00,WNW,295,2.0,3.0,95,-99.99,,,-99.99,,2013-05-02 21:53:00,
2013-05-02 14:02:00,38.0,36.0,-100.00,WNW,295,2.0,3.0,95,-99.99,,,-99.99,,2013-05-02 22:02:00,
2013-05-02 14:12:00,38.0,36.0,-100.00,WNW,295,2.0,3.0,95,-99.99,,,-99.99,,2013-05-02 22:12:00,
2013-05-02 14:22:00,38.0,36.0,-100.00,NW,315,2.0,6.0,95,-99.99,,,-99.99,,2013-05-02 22:22:00,
2013-05-02 14:32:00,38.0,36.0,-100.00,NW,315,2.0,6.0,95,-99.99,,,-99.99,,2013-05-02 22:32:00,
2013-05-02 14:42:00,38.0,36.0,-100.00,NW,315,2.0,6.0,95,-99.99,,,-99.99,,2013-05-02 22:42:00,
2013-05-02 14:52:00,38.0,37.0,-100.00,NNW,345,1.0,5.0,95,-99.99,,,-99.99,,2013-05-02 22:52:00,
2013-05-02 15:02:00,38.0,37.0,-100.00,NNW,345,1.0,5.0,95,-99.99,,,-99.99,,2013-05-02 23:02:00,
2013-05-02 15:11:00,38.0,37.0,-100.00,NNW,345,1.0,5.0,95,-99.99,,,-99.99,,2013-05-02 23:11:00,
2013-05-02 15:22:00,38.0,37.0,-100.00,NNW,330,1.0,4.0,95,-99.99,,,-99.99,,2013-05-02 23:22:00,
2013-05-02 15:31:00,38.0,37.0,-100.00,NNW,330,1.0,4.0,95,-99.99,,,-99.99,,2013-05-02 23:31:00,
2013-05-02 15:42:00,38.0,37.0,-100.00,NNW,330,1.0,4.0,95,-99.99,,,-99.99,,2013-05-02 23:42:00,
2013-05-02 15:52:00,38.0,37.0,-100.00,WNW,300,1.0,4.0,95,-99.99,,,-99.99,,2013-05-02 23:52:00,
2013-05-02 16:01:00,38.0,37.0,-100.00,WNW,300,1.0,4.0,95,-99.99,,,-99.99,,2013-05-03 00:01:00,
2013-05-02 16:11:00,38.0,37.0,-100.00,WNW,300,1.0,4.0,95,-99.99,,,-99.99,,2013-05-03 00:11:00,
2013-05-02 16:21:00,39.0,37.0,-100.00,North,5,0.0,2.0,95,-99.99,,,-99.99,,2013-05-03 00:21:00,
2013-05-02 16:31:00,39.0,37.0,-100.00,North,5,0.0,2.0,95,-99.99,,,-99.99,,2013-05-03 00:31:00,
2013-05-02 16:41:00,39.0,37.0,-100.00,North,5,0.0,2.0,95,-99.99,,,-99.99,,2013-05-03 00:41:00,
2013-05-02 16:52:00,39.0,38.0,-100.00,WSW,245,2.0,4.0,95,-99.99,,,-99.99,,2013-05-03 00:52:00,
2013-05-02 17:01:00,39.0,38.0,-100.00,WSW,245,2.0,4.0,95,-99.99,,,-99.99,,2013-05-03 01:01:00,
2013-05-02 17:11:00,39.0,38.0,-100.00,WSW,245,2.0,4.0,95,-99.99,,,-99.99,,2013-05-03 01:11:00,
2013-05-02 17:21:00,40.0,38.0,-100.00,West,265,2.0,7.0,95,-99.99,,,-99.99,,2013-05-03 01:21:00,
2013-05-02 17:31:00,40.0,38.0,-100.00,West,265,2.0,7.0,95,-99.99,,,-99.99,,2013-05-03 01:31:00,
2013-05-02 17:42:00,40.0,38.0,-100.00,West,265,2.0,7.0,95,-99.99,,,-99.99,,2013-05-03 01:42:00,
2013-05-02 17:52:00,40.0,38.0,-100.00,NNE,15,1.0,4.0,95,-99.99,,,-99.99,,2013-05-03 01:52:00,
2013-05-02 18:01:00,40.0,38.0,-100.00,NNE,15,1.0,4.0,95,-99.99,,,-99.99,,2013-05-03 02:01:00,
2013-05-02 18:11:00,40.0,38.0,-100.00,NNE,15,1.0,4.0,95,-99.99,,,-99.99,,2013-05-03 02:11:00,
2013-05-02 18:21:00,39.0,38.0,-100.00,South,190,0.0,7.0,95,-99.99,,,-99.99,,2013-05-03 02:21:00,
2013-05-02 18:31:00,39.0,38.0,-100.00,South,190,0.0,7.0,95,-99.99,,,-99.99,,2013-05-03 02:31:00,
2013-05-02 18:42:00,39.0,38.0,-100.00,South,190,0.0,7.0,95,-99.99,,,-99.99,,2013-05-03 02:42:00,
2013-05-02 18:52:00,39.0,38.0,-100.00,NNW,330,1.0,2.0,95,-99.99,,,-99.99,,2013-05-03 02:52:00,
2013-05-02 19:01:00,39.0,38.0,-100.00,NNW,330,1.0,2.0,95,-99.99,,,-99.99,,2013-05-03 03:01:00,
2013-05-02 19:11:00,39.0,38.0,-100.00,NNW,330,1.0,2.0,95,-99.99,,,-99.99,,2013-05-03 03:11:00,
2013-05-02 19:21:00,38.0,37.0,-100.00,WSW,245,3.0,4.0,95,-99.99,,,-99.99,,2013-05-03 03:21:00,
2013-05-02 19:32:00,38.0,37.0,-100.00,WSW,245,3.0,4.0,95,-99.99,,,-99.99,,2013-05-03 03:32:00,
2013-05-02 19:43:00,38.0,37.0,-100.00,WSW,245,3.0,4.0,95,-99.99,,,-99.99,,2013-05-03 03:43:00,
2013-05-02 19:53:00,38.0,36.0,-100.00,NW,310,0.0,3.0,95,-99.99,,,-99.99,,2013-05-03 03:53:00,
2013-05-02 20:02:00,38.0,36.0,-100.00,NW,310,0.0,3.0,95,-99.99,,,-99.99,,2013-05-03 04:02:00,
2013-05-02 20:12:00,38.0,36.0,-100.00,NW,310,0.0,3.0,95,-99.99,,,-99.99,,2013-05-03 04:12:00,
2013-05-02 20:22:00,37.0,36.0,-100.00,NW,315,1.0,2.0,96,-99.99,,,-99.99,,2013-05-03 04:22:00,
2013-05-02 20:32:00,37.0,36.0,-100.00,NW,315,1.0,2.0,96,-99.99,,,-99.99,,2013-05-03 04:32:00,
2013-05-02 20:43:00,37.0,36.0,-100.00,NW,315,1.0,2.0,96,-99.99,,,-99.99,,2013-05-03 04:43:00,
2013-05-02 20:53:00,37.0,36.0,-100.00,NW,310,3.0,5.0,96,-99.99,,,-99.99,,2013-05-03 04:53:00,
2013-05-02 21:02:00,37.0,36.0,-100.00,NW,310,3.0,5.0,96,-99.99,,,-99.99,,2013-05-03 05:02:00,
2013-05-02 21:12:00,37.0,36.0,-100.00,NW,310,3.0,5.0,96,-99.99,,,-99.99,,2013-05-03 05:12:00,
2013-05-02 21:21:00,36.0,35.0,-100.00,NW,325,2.0,6.0,96,-99.99,,,-99.99,,2013-05-03 05:21:00,
2013-05-02 21:32:00,36.0,35.0,-100.00,NW,325,2.0,6.0,96,-99.99,,,-99.99,,2013-05-03 05:32:00,
2013-05-02 21:42:00,36.0,35.0,-100.00,NW,325,2.0,6.0,96,-99.99,,,-99.99,,2013-05-03 05:42:00,
2013-05-02 21:52:00,36.0,35.0,-100.00,North,0,2.0,6.0,97,-99.99,,,-99.99,,2013-05-03 05:52:00,
2013-05-02 22:01:00,36.0,35.0,-100.00,North,0,2.0,6.0,97,-99.99,,,-99.99,,2013-05-03 06:01:00,
2013-05-02 22:11:00,36.0,35.0,-100.00,North,0,2.0,6.0,97,-99.99,,,-99.99,,2013-05-03 06:11:00,
2013-05-02 22:21:00,36.0,35.0,-100.00,NNW,345,1.0,4.0,97,-99.99,,,-99.99,,2013-05-03 06:21:00,
2013-05-02 22:31:00,36.0,35.0,-100.00,NNW,345,1.0,4.0,97,-99.99,,,-99.99,,2013-05-03 06:31:00,
2013-05-02 22:42:00,36.0,35.0,-100.00,NNW,345,1.0,4.0,97,-99.99,,,-99.99,,2013-05-03 06:42:00,
2013-05-02 22:52:00,36.0,35.0,-100.00,North,0,1.0,4.0,97,-99.99,,,-99.99,,2013-05-03 06:52:00,
2013-05-02 23:01:00,36.0,35.0,-100.00,North,0,1.0,4.0,97,-99.99,,,-99.99,,2013-05-03 07:01:00,
2013-05-02 23:11:00,36.0,35.0,-100.00,North,0,1.0,4.0,97,-99.99,,,-99.99,,2013-05-03 07:11:00,
2013-05-02 23:21:00,36.0,35.0,-100.00,North,0,2.0,4.0,97,-99.99,,,-99.99,,2013-05-03 07:21:00,
2013-05-02 23:31:00,36.0,35.0,-100.00,North,0,2.0,4.0,97,-99.99,,,-99.99,,2013-05-03 07:31:00,
2013-05-02 23:42:00,36.0,35.0,-100.00,North,0,2.0,4.0,97,-99.99,,,-99.99,,2013-05-03 07:42:00,
2013-05-02 23:52:00,35.0,35.0,-100.00,NNE,30,1.0,6.0,98,-99.99,,,-99.99,,2013-05-03 07:52:00,